QPF
0.00 0.00 0.00 0.00 0.00 0.00 0.00 0.00 0.00 0.00 0.00 0.01 0.01 0.02 0.02 0.02 0.02 0.03 0.04 0.06 0.07 0.07 0.07 0.06 0.07 0.08 0.08 0.08 0.08 0.08 0.08 0.08 0.09 0.08 0.08 0.08 0.08 0.09 0.10 0.09 0.06 0.04 0.04 0.04
0.00 0.00 0.00 0.00 0.00 0.00 0.00 0.00 0.00 0.00 0.01 0.01 0.01 0.02 0.03 0.03 0.03 0.04 0.07 0.08 0.07 0.06 0.06 0.07 0.07 0.06 0.08 0.12 0.11 0.10 0.10 0.12 0.11 0.10 0.09 0.08 0.09 0.10 0.11 0.11 0.08 0.06 0.05 0.04
0.00 0.00 0.00 0.00 0.00 0.00 0.00 0.00 0.01 0.01 0.01 0.01 0.02 0.02 0.03 0.03 0.02 0.03 0.03 0.04 0.05 0.06 0.07 0.07 0.08 0.07 0.07 0.13 0.17 0.14 0.15 0.14 0.11 0.10 0.09 0.09 0.10 0.11 0.14 0.17 0.15 0.10 0.08 0.06
0.01 0.00 0.00 0.00 0.00 0.00 0.00 0.01 0.01 0.01 0.01 0.01 0.02 0.03 0.03 0.03 0.03 0.03 0.03 0.03 0.04 0.04 0.04 0.07 0.08 0.08 0.09 0.11 0.13 0.13 0.16 0.22 0.17 0.12 0.09 0.09 0.11 0.12 0.13 0.17 0.20 0.19 0.14 0.09
0.00 0.00 0.00 0.01 0.01 0.01 0.00 0.01 0.01 0.01 0.01 0.02 0.03 0.03 0.03 0.03 0.04 0.04 0.05 0.05 0.04 0.05 0.05 0.07 0.10 0.11 0.12 0.11 0.08 0.07 0.10 0.15 0.14 0.13 0.14 0.12 0.09 0.11 0.15 0.17 0.17 0.15 0.11 0.07
0.01 0.01 0.00 0.00 0.01 0.00 0.01 0.01 0.00 0.01 0.01 0.02 0.02 0.02 0.02 0.04 0.04 0.04 0.05 0.06 0.05 0.05 0.06 0.09 0.13 0.11 0.08 0.06 0.06 0.08 0.10 0.11 0.11 0.11 0.12 0.14 0.10 0.09 0.10 0.09 0.08 0.07 0.06 0.05
0.01 0.01 0.01 0.00 0.01 0.01 0.02 0.01 0.01 0.01 0.01 0.01 0.01 0.02 0.02 0.03 0.04 0.05 0.07 0.06 0.04 0.04 0.05 0.06 0.06 0.04 0.04 0.04 0.06 0.10 0.13 0.11 0.12 0.12 0.11 0.11 0.09 0.09 0.09 0.08 0.07 0.05 0.05 0.05
0.00 0.01 0.01 0.00 0.01 0.01 0.02 0.01 0.01 0.01 0.02 0.02 0.02 0.03 0.04 0.06 0.08 0.06 0.05 0.05 0.04 0.04 0.05 0.05 0.03 0.03 0.03 0.05 0.07 0.08 0.09 0.09 0.08 0.12 0.15 0.14 0.10 0.09 0.11 0.11 0.09 0.08 0.09 0.09
0.01 0.01 0.01 0.01 0.01 0.01 0.02 0.02 0.02 0.01 0.01 0.02 0.03 0.03 0.03 0.04 0.04 0.03 0.04 0.04 0.04 0.03 0.03 0.04 0.04 0.03 0.04 0.04 0.05 0.05 0.06 0.07 0.08 0.09 0.12 0.11 0.10 0.10 0.10 0.08 0.07 0.08 0.10 0.11
0.02 0.02 0.02 0.02 0.02 0.02 0.02 0.03 0.02 0.02 0.02 0.02 0.02 0.02 0.02 0.03 0.03 0.04 0.05 0.06 0.07 0.05 0.04 0.05 0.08 0.07 0.06 0.06 0.06 0.06 0.07 0.08 0.08 0.08 0.07 0.07 0.07 0.08 0.09 0.08 0.07 0.07 0.08 0.08
0.02 0.02 0.03 0.03 0.04 0.03 0.03 0.03 0.03 0.02 0.02 0.02 0.02 0.02 0.02 0.03 0.03 0.04 0.04 0.05 0.06 0.07 0.07 0.06 0.07 0.06 0.06 0.07 0.07 0.06 0.06 0.08 0.09 0.08 0.06 0.06 0.07 0.07 0.07 0.08 0.09 0.08 0.08 0.08
0.03 0.03 0.03 0.03 0.03 0.03 0.03 0.03 0.03 0.03 0.03 0.03 0.03 0.02 0.02 0.02 0.03 0.03 0.03 0.03 0.03 0.04 0.06 0.06 0.06 0.06 0.06 0.06 0.05 0.05 0.06 0.06 0.05 0.04 0.05 0.05 0.06 0.08 0.08 0.07 0.07 0.07 0.06 0.05
0.01 0.02 0.03 0.03 0.03 0.04 0.04 0.05 0.06 0.07 0.08 0.08 0.07 0.06 0.04 0.04 0.04 0.04 0.04 0.03 0.03 0.03 0.04 0.04 0.04 0.05 0.05 0.06 0.06 0.04 0.03 0.02 0.03 0.03 0.04 0.04 0.05 0.06 0.06 0.05 0.04 0.04 0.04 0.03
0.02 0.03 0.04 0.06 0.06 0.06 0.07 0.06 0.07 0.09 0.10 0.11 0.10 0.09 0.07 0.06 0.07 0.07 0.05 0.04 0.04 0.03 0.03 0.04 0.04 0.04 0.04 0.03 0.02 0.02 0.01 0.01 0.01 0.02 0.03 0.04 0.03 0.04 0.04 0.04 0.03 0.03 0.03 0.03
0.06 0.06 0.07 0.07 0.07 0.07 0.09 0.10 0.09 0.08 0.09 0.11 0.14 0.12 0.09 0.07 0.07 0.08 0.07 0.05 0.04 0.04 0.03 0.03 0.03 0.02 0.02 0.01 0.01 0.01 0.01 0.01 0.01 0.02 0.02 0.03 0.03 0.02 0.03 0.03 0.02 0.03 0.03 0.04
0.06 0.06 0.06 0.06 0.05 0.04 0.06 0.06 0.07 0.08 0.09 0.07 0.07 0.06 0.05 0.05 0.05 0.05 0.05 0.04 0.03 0.03 0.03 0.03 0.03 0.02 0.02 0.01 0.01 0.01 0.01 0.02 0.02 0.02 0.02 0.02 0.02 0.02 0.02 0.02 0.02 0.03 0.04 0.03
0.04 0.04 0.03 0.04 0.05 0.05 0.06 0.06 0.06 0.06 0.06 0.05 0.04 0.04 0.03 0.03 0.03 0.03 0.03 0.03 0.03 0.04 0.04 0.05 0.04 0.03 0.02 0.02 0.02 0.02 0.02 0.02 0.02 0.02 0.02 0.02 0.02 0.02 0.02 0.02 0.02 0.02 0.02 0.03
0.02 0.02 0.03 0.04 0.07 0.08 0.07 0.06 0.06 0.05 0.05 0.04 0.04 0.04 0.03 0.03 0.04 0.04 0.04 0.03 0.04 0.04 0.04 0.04 0.03 0.02 0.01 0.01 0.01 0.01 0.02 0.03 0.03 0.02 0.02 0.02 0.02 0.03 0.03 0.02 0.02 0.02 0.02 0.02
0.02 0.03 0.03 0.03 0.04 0.05 0.04 0.04 0.04 0.03 0.03 0.03 0.03 0.03 0.03 0.05 0.05 0.05 0.04 0.04 0.04 0.04 0.04 0.03 0.03 0.03 0.03 0.02 0.02 0.02 0.02 0.04 0.05 0.03 0.03 0.04 0.04 0.04 0.03 0.03 0.02 0.02 0.02 0.02
0.02 0.03 0.02 0.02 0.03 0.03 0.03 0.02 0.02 0.02 0.02 0.03 0.04 0.04 0.04 0.05 0.05 0.04 0.04 0.04 0.05 0.05 0.05 0.05 0.05 0.04 0.03 0.03 0.03 0.03 0.03 0.03 0.05 0.05 0.04 0.05 0.05 0.04 0.03 0.03 0.03 0.03 0.03 0.02
0.03 0.03 0.02 0.02 0.02 0.02 0.02 0.02 0.02 0.02 0.02 0.03 0.03 0.04 0.04 0.04 0.05 0.05 0.05 0.06 0.06 0.06 0.05 0.04 0.03 0.03 0.02 0.03 0.03 0.03 0.03 0.03 0.03 0.06 0.07 0.06 0.07 0.05 0.03 0.02 0.02 0.02 0.03 0.03
0.03 0.03 0.02 0.02 0.02 0.01 0.01 0.02 0.02 0.01 0.02 0.02 0.03 0.03 0.04 0.04 0.05 0.05 0.06 0.06 0.05 0.04 0.03 0.03 0.03 0.02 0.02 0.03 0.03 0.03 0.03 0.03 0.03 0.04 0.06 0.07 0.08 0.07 0.06 0.05 0.04 0.03 0.03 0.03
0.02 0.02 0.02 0.01 0.01 0.01 0.01 0.01 0.01 0.01 0.01 0.02 0.02 0.02 0.03 0.04 0.05 0.05 0.07 0.08 0.06 0.04 0.03 0.03 0.03 0.02 0.03 0.03 0.04 0.04 0.04 0.03 0.02 0.02 0.02 0.03 0.05 0.06 0.06 0.07 0.06 0.06 0.05 0.04
0.02 0.02 0.02 0.01 0.01 0.01 0.01 0.01 0.01 0.01 0.01 0.01 0.02 0.02 0.01 0.02 0.03 0.03 0.03 0.04 0.06 0.06 0.05 0.04 0.03 0.03 0.03 0.02 0.02 0.02 0.03 0.03 0.02 0.02 0.03 0.03 0.04 0.05 0.05 0.05 0.06 0.07 0.06 0.05
0.02 0.03 0.02 0.01 0.01 0.01 0.01 0.02 0.01 0.01 0.01 0.02 0.02 0.01 0.01 0.02 0.02 0.01 0.01 0.01 0.02 0.02 0.02 0.03 0.03 0.02 0.02 0.01 0.01 0.01 0.02 0.02 0.03 0.03 0.03 0.02 0.03 0.04 0.04 0.04 0.06 0.06 0.06 0.05
0.03 0.03 0.03 0.03 0.02 0.02 0.01 0.01 0.01 0.01 0.01 0.01 0.01 0.01 0.01 0.01 0.01 0.01 0.00 0.00 0.01 0.01 0.01 0.01 0.01 0.01 0.01 0.01 0.01 0.01 0.02 0.03 0.03 0.04 0.04 0.04 0.04 0.04 0.05 0.05 0.05 0.05 0.05 0.05
0.03 0.04 0.03 0.03 0.02 0.01 0.01 0.01 0.01 0.01 0.01 0.01 0.00 0.00 0.00 0.01 0.01 0.01 0.01 0.01 0.01 0.00 0.01 0.01 0.01 0.01 0.01 0.01 0.01 0.02 0.02 0.03 0.03 0.03 0.04 0.05 0.06 0.06 0.06 0.06 0.06 0.06 0.05 0.05
MSLP
1012.71 1012.63 1012.63 1012.70 1012.81 1012.94 1013.01 1013.01 1012.88 1012.61 1012.22 1011.74 1011.21 1010.68 1010.19 1009.77 1009.44 1009.17 1008.95 1008.75 1008.53 1008.29 1008.01 1007.72 1007.43 1007.20 1007.05 1007.01 1007.10 1007.30 1007.59 1007.94 1008.31 1008.66 1008.96 1009.20 1009.37 1009.51 1009.62 1009.74 1009.88 1010.05 1010.25 1010.49
1013.29 1013.22 1013.17 1013.13 1013.10 1013.06 1012.99 1012.88 1012.72 1012.50 1012.24 1011.96 1011.67 1011.39 1011.13 1010.90 1010.68 1010.46 1010.20 1009.90 1009.55 1009.14 1008.70 1008.27 1007.87 1007.55 1007.34 1007.26 1007.31 1007.46 1007.69 1007.96 1008.23 1008.47 1008.65 1008.78 1008.86 1008.91 1008.96 1009.04 1009.16 1009.33 1009.56 1009.82
1013.90 1013.84 1013.76 1013.64 1013.50 1013.34 1013.17 1012.98 1012.79 1012.61 1012.44 1012.29 1012.17 1012.07 1011.97 1011.85 1011.68 1011.45 1011.14 1010.74 1010.27 1009.74 1009.19 1008.67 1008.22 1007.88 1007.66 1007.59 1007.63 1007.76 1007.95 1008.14 1008.31 1008.43 1008.48 1008.48 1008.43 1008.38 1008.34 1008.36 1008.44 1008.59 1008.81 1009.09
1014.54 1014.49 1014.38 1014.21 1014.00 1013.75 1013.50 1013.25 1013.04 1012.87 1012.76 1012.70 1012.67 1012.66 1012.63 1012.55 1012.39 1012.12 1011.74 1011.25 1010.68 1010.08 1009.47 1008.93 1008.49 1008.17 1008.00 1007.97 1008.05 1008.19 1008.36 1008.50 1008.58 1008.58 1008.51 1008.37 1008.19 1008.01 1007.87 1007.79 1007.80 1007.90 1008.09 1008.34
1015.18 1015.11 1014.97 1014.75 1014.49 1014.19 1013.89 1013.61 1013.38 1013.22 1013.12 1013.09 1013.10 1013.12 1013.10 1013.00 1012.80 1012.48 1012.03 1011.47 1010.84 1010.20 1009.59 1009.07 1008.68 1008.44 1008.36 1008.41 1008.54 1008.73 1008.89 1009.01 1009.03 1008.94 1008.75 1008.48 1008.18 1007.87 1007.61 1007.43 1007.33 1007.35 1007.47 1007.66
1015.72 1015.61 1015.43 1015.18 1014.88 1014.55 1014.23 1013.93 1013.69 1013.53 1013.44 1013.41 1013.42 1013.42 1013.37 1013.23 1012.97 1012.59 1012.08 1011.48 1010.82 1010.18 1009.60 1009.14 1008.83 1008.69 1008.71 1008.85 1009.07 1009.30 1009.50 1009.61 1009.59 1009.45 1009.18 1008.81 1008.39 1007.97 1007.59 1007.29 1007.08 1006.99 1007.00 1007.10
1016.07 1015.91 1015.68 1015.41 1015.09 1014.75 1014.42 1014.13 1013.90 1013.73 1013.64 1013.60 1013.58 1013.55 1013.45 1013.26 1012.96 1012.53 1011.98 1011.36 1010.71 1010.10 1009.57 1009.18 1008.96 1008.92 1009.03 1009.26 1009.56 1009.85 1010.08 1010.20 1010.18 1010.01 1009.69 1009.26 1008.77 1008.26 1007.77 1007.35 1007.02 1006.81 1006.69 1006.68
1016.16 1015.93 1015.67 1015.37 1015.05 1014.73 1014.42 1014.15 1013.93 1013.78 1013.68 1013.63 1013.59 1013.52 1013.39 1013.16 1012.82 1012.37 1011.81 1011.20 1010.58 1010.01 1009.54 1009.22 1009.07 1009.10 1009.28 1009.58 1009.93 1010.26 1010.53 1010.68 1010.67 1010.50 1010.17 1009.72 1009.18 1008.61 1008.05 1007.53 1007.09 1006.75 1006.52 1006.38
1015.97 1015.68 1015.39 1015.09 1014.78 1014.48 1014.21 1013.97 1013.79 1013.65 1013.57 1013.51 1013.45 1013.37 1013.21 1012.97 1012.62 1012.17 1011.64 1011.05 1010.47 1009.95 1009.53 1009.25 1009.15 1009.21 1009.42 1009.74 1010.11 1010.46 1010.75 1010.91 1010.93 1010.78 1010.47 1010.03 1009.49 1008.89 1008.28 1007.70 1007.18 1006.73 1006.39 1006.14
1015.52 1015.20 1014.89 1014.60 1014.33 1014.07 1013.84 1013.65 1013.50 1013.40 1013.33 1013.27 1013.21 1013.12 1012.97 1012.73 1012.40 1011.98 1011.48 1010.94 1010.41 1009.93 1009.54 1009.29 1009.19 1009.24 1009.43 1009.72 1010.06 1010.40 1010.67 1010.84 1010.87 1010.75 1010.48 1010.07 1009.55 1008.97 1008.35 1007.73 1007.16 1006.65 1006.22 1005.89
1014.91 1014.58 1014.28 1014.02 1013.79 1013.58 1013.40 1013.25 1013.14 1013.06 1013.01 1012.96 1012.91 1012.82 1012.68 1012.47 1012.17 1011.80 1011.36 1010.88 1010.39 1009.95 1009.58 1009.32 1009.18 1009.18 1009.30 1009.52 1009.79 1010.06 1010.29 1010.44 1010.48 1010.38 1010.14 1009.78 1009.31 1008.76 1008.16 1007.55 1006.96 1006.42 1005.95 1005.56
1014.27 1013.95 1013.68 1013.45 1013.27 1013.10 1012.97 1012.86 1012.77 1012.71 1012.66 1012.62 1012.57 1012.49 1012.37 1012.19 1011.95 1011.63 1011.26 1010.84 1010.40 1009.99 1009.62 1009.33 1009.14 1009.06 1009.07 1009.18 1009.33 1009.51 1009.67 1009.77 1009.79 1009.70 1009.49 1009.18 1008.76 1008.26 1007.70 1007.12 1006.55 1006.01 1005.52 1005.12
1013.72 1013.43 1013.19 1013.00 1012.85 1012.73 1012.62 1012.53 1012.45 1012.38 1012.33 1012.27 1012.22 1012.14 1012.04 1011.90 1011.71 1011.46 1011.15 1010.79 1010.41 1010.02 1009.66 1009.33 1009.08 1008.90 1008.80 1008.77 1008.80 1008.85 1008.91 1008.95 1008.92 1008.83 1008.64 1008.36 1007.99 1007.54 1007.03 1006.49 1005.95 1005.43 1004.97 1004.57
1013.33 1013.07 1012.86 1012.70 1012.58 1012.47 1012.37 1012.28 1012.19 1012.10 1012.01 1011.94 1011.86 1011.78 1011.69 1011.58 1011.44 1011.25 1011.01 1010.72 1010.39 1010.04 1009.67 1009.32 1009.01 1008.73 1008.52 1008.37 1008.26 1008.20 1008.15 1008.10 1008.02 1007.90 1007.71 1007.45 1007.11 1006.71 1006.25 1005.76 1005.25 1004.77 1004.32 1003.94
1013.10 1012.87 1012.69 1012.55 1012.44 1012.33 1012.22 1012.11 1011.98 1011.85 1011.73 1011.61 1011.50 1011.41 1011.32 1011.23 1011.12 1010.98 1010.81 1010.58 1010.31 1010.00 1009.65 1009.29 1008.93 1008.59 1008.28 1008.02 1007.80 1007.62 1007.47 1007.34 1007.20 1007.03 1006.82 1006.57 1006.25 1005.87 1005.45 1004.99 1004.52 1004.07 1003.65 1003.29
1013.00 1012.79 1012.63 1012.50 1012.39 1012.27 1012.14 1011.98 1011.81 1011.63 1011.45 1011.28 1011.13 1011.01 1010.91 1010.83 1010.75 1010.65 1010.53 1010.37 1010.15 1009.89 1009.57 1009.21 1008.84 1008.46 1008.09 1007.74 1007.44 1007.17 1006.93 1006.71 1006.50 1006.29 1006.05 1005.78 1005.46 1005.10 1004.69 1004.26 1003.81 1003.38 1002.98 1002.63
1012.97 1012.77 1012.62 1012.49 1012.37 1012.23 1012.06 1011.87 1011.65 1011.42 1011.18 1010.96 1010.77 1010.61 1010.49 1010.41 1010.34 1010.27 1010.19 1010.08 1009.91 1009.69 1009.41 1009.08 1008.71 1008.31 1007.91 1007.52 1007.15 1006.81 1006.50 1006.21 1005.95 1005.68 1005.40 1005.10 1004.77 1004.40 1003.99 1003.57 1003.14 1002.71 1002.32 1001.98
1012.92 1012.74 1012.60 1012.47 1012.33 1012.17 1011.98 1011.75 1011.49 1011.21 1010.92 1010.65 1010.42 1010.23 1010.09 1009.98 1009.92 1009.86 1009.81 1009.72 1009.60 1009.41 1009.17 1008.87 1008.51 1008.12 1007.70 1007.29 1006.88 1006.49 1006.12 1005.78 1005.45 1005.14 1004.81 1004.48 1004.11 1003.72 1003.31 1002.88 1002.45 1002.03 1001.64 1001.30
1012.83 1012.67 1012.53 1012.40 1012.26 1012.09 1011.87 1011.61 1011.32 1011.01 1010.69 1010.39 1010.12 1009.90 1009.73 1009.60 1009.52 1009.46 1009.41 1009.34 1009.23 1009.07 1008.85 1008.56 1008.22 1007.84 1007.42 1006.99 1006.56 1006.13 1005.72 1005.33 1004.95 1004.57 1004.20 1003.81 1003.41 1003.00 1002.57 1002.13 1001.69 1001.27 1000.89 1000.55
1012.68 1012.54 1012.42 1012.30 1012.16 1011.98 1011.76 1011.49 1011.18 1010.85 1010.52 1010.19 1009.90 1009.65 1009.45 1009.30 1009.19 1009.11 1009.04 1008.95 1008.84 1008.68 1008.46 1008.18 1007.85 1007.46 1007.04 1006.59 1006.13 1005.67 1005.22 1004.77 1004.34 1003.91 1003.48 1003.04 1002.60 1002.15 1001.69 1001.24 1000.81 1000.39 1000.02 999.69
1012.52 1012.40 1012.30 1012.19 1012.05 1011.87 1011.65 1011.38 1011.08 1010.75 1010.41 1010.08 1009.77 1009.50 1009.28 1009.09 1008.95 1008.83 1008.72 1008.61 1008.46 1008.27 1008.04 1007.74 1007.39 1007.00 1006.56 1006.09 1005.60 1005.10 1004.60 1004.10 1003.61 1003.11 1002.62 1002.13 1001.64 1001.16 1000.68 1000.22 999.79 999.39 999.04 998.75
1012.38 1012.28 1012.19 1012.09 1011.95 1011.78 1011.56 1011.30 1011.01 1010.69 1010.35 1010.02 1009.71 1009.43 1009.18 1008.97 1008.79 1008.63 1008.47 1008.30 1008.11 1007.88 1007.60 1007.28 1006.90 1006.47 1006.00 1005.50 1004.97 1004.43 1003.88 1003.33 1002.77 1002.22 1001.67 1001.13 1000.60 1000.08 999.58 999.12 998.69 998.32 998.01 997.76
1012.29 1012.20 1012.11 1012.01 1011.87 1011.69 1011.48 1011.23 1010.94 1010.63 1010.31 1009.99 1009.68 1009.39 1009.13 1008.89 1008.67 1008.46 1008.25 1008.03 1007.78 1007.50 1007.18 1006.81 1006.39 1005.93 1005.42 1004.89 1004.32 1003.74 1003.14 1002.54 1001.93 1001.32 1000.72 1000.13 999.56 999.01 998.50 998.04 997.63 997.29 997.02 996.83
1012.23 1012.14 1012.04 1011.92 1011.77 1011.58 1011.36 1011.10 1010.82 1010.52 1010.21 1009.90 1009.60 1009.32 1009.04 1008.78 1008.53 1008.29 1008.03 1007.76 1007.46 1007.13 1006.76 1006.34 1005.89 1005.39 1004.86 1004.29 1003.70 1003.09 1002.46 1001.81 1001.17 1000.52 999.88 999.26 998.66 998.10 997.58 997.13 996.74 996.43 996.21 996.08
1012.17 1012.06 1011.93 1011.77 1011.59 1011.38 1011.14 1010.87 1010.59 1010.30 1010.00 1009.70 1009.41 1009.13 1008.85 1008.58 1008.31 1008.04 1007.74 1007.43 1007.09 1006.73 1006.32 1005.88 1005.40 1004.89 1004.34 1003.76 1003.16 1002.54 1001.90 1001.24 1000.58 999.92 999.27 998.63 998.03 997.46 996.95 996.51 996.15 995.87 995.68 995.60
1012.03 1011.88 1011.71 1011.51 1011.29 1011.04 1010.77 1010.49 1010.20 1009.91 1009.61 1009.33 1009.05 1008.77 1008.50 1008.23 1007.95 1007.65 1007.34 1007.01 1006.65 1006.26 1005.84 1005.38 1004.90 1004.40 1003.86 1003.30 1002.72 1002.12 1001.50 1000.87 1000.23 999.59 998.95 998.33 997.74 997.19 996.70 996.27 995.93 995.67 995.52 995.46
1011.76 1011.56 1011.34 1011.09 1010.81 1010.53 1010.23 1009.93 1009.63 1009.33 1009.05 1008.77 1008.50 1008.24 1007.98 1007.71 1007.42 1007.13 1006.81 1006.46 1006.09 1005.70 1005.29 1004.85 1004.39 1003.91 1003.42 1002.91 1002.38 1001.83 1001.27 1000.70 1000.11 999.52 998.93 998.36 997.80 997.29 996.82 996.42 996.09 995.85 995.71 995.67
Thickness
5731 5740 5743 5743 5745 5746 5744 5740 5734 5741 5745 5760 5769 5774 5778 5781 5783 5784 5785 5785 5785 5784 5785 5785 5784 5782 5781 5779 5777 5775 5772 5769 5768 5766 5764 5762 5760 5758 5755 5754 5752 5750 5748 5745
5722 5731 5734 5732 5737 5740 5741 5741 5741 5743 5743 5759 5764 5767 5769 5771 5772 5772 5774 5775 5776 5776 5776 5776 5775 5774 5771 5770 5770 5768 5765 5762 5762 5760 5758 5755 5753 5751 5749 5748 5746 5744 5742 5741
5699 5714 5720 5710 5725 5729 5732 5736 5737 5734 5743 5752 5753 5756 5759 5762 5765 5765 5766 5766 5767 5768 5768 5768 5768 5767 5764 5763 5763 5761 5760 5758 5756 5754 5751 5748 5745 5744 5743 5741 5739 5737 5736 5736
5683 5696 5688 5707 5728 5730 5727 5729 5733 5736 5740 5744 5746 5749 5753 5755 5756 5757 5758 5758 5759 5760 5760 5760 5759 5757 5755 5755 5753 5753 5753 5751 5749 5746 5744 5743 5740 5739 5737 5735 5734 5732 5730 5730
5667 5672 5682 5702 5716 5718 5715 5715 5726 5728 5732 5735 5738 5740 5741 5746 5749 5749 5750 5750 5751 5752 5752 5752 5751 5749 5747 5745 5745 5744 5743 5741 5740 5739 5736 5734 5733 5732 5732 5729 5726 5725 5724 5723
5661 5666 5666 5690 5710 5718 5713 5702 5718 5721 5722 5723 5725 5718 5725 5735 5738 5739 5739 5739 5740 5741 5743 5742 5742 5741 5738 5736 5736 5735 5735 5734 5733 5732 5729 5726 5724 5724 5723 5721 5720 5720 5719 5718
5655 5657 5668 5689 5701 5707 5689 5693 5709 5712 5714 5714 5712 5714 5719 5724 5725 5727 5728 5729 5729 5728 5728 5729 5730 5729 5727 5725 5724 5726 5726 5725 5723 5721 5720 5718 5717 5715 5714 5713 5713 5712 5712 5711
5645 5649 5658 5683 5688 5685 5686 5695 5700 5702 5705 5705 5705 5707 5710 5712 5712 5715 5716 5717 5717 5716 5715 5716 5717 5717 5716 5713 5713 5715 5714 5713 5712 5711 5710 5710 5707 5706 5706 5705 5704 5703 5702 5700
5646 5651 5663 5670 5674 5679 5683 5685 5689 5692 5694 5695 5694 5695 5698 5699 5700 5701 5703 5703 5703 5703 5703 5702 5703 5703 5702 5702 5702 5703 5703 5702 5702 5701 5699 5698 5698 5697 5697 5695 5693 5692 5690 5688
5640 5649 5657 5662 5667 5672 5675 5677 5681 5684 5685 5685 5684 5684 5685 5686 5687 5688 5690 5690 5690 5691 5690 5689 5689 5689 5689 5690 5691 5690 5689 5688 5688 5687 5686 5686 5685 5686 5686 5685 5683 5680 5678 5677
5632 5641 5648 5655 5658 5661 5664 5668 5671 5674 5675 5675 5674 5674 5675 5674 5675 5676 5677 5677 5677 5677 5676 5676 5676 5677 5678 5678 5678 5676 5676 5675 5676 5674 5673 5672 5672 5672 5673 5673 5672 5671 5669 5668
5627 5635 5636 5642 5650 5653 5654 5656 5659 5661 5662 5664 5664 5663 5664 5664 5665 5665 5665 5664 5664 5663 5663 5663 5664 5664 5665 5665 5664 5663 5662 5662 5661 5661 5661 5660 5660 5660 5660 5660 5660 5659 5658 5658
5629 5633 5634 5639 5643 5646 5646 5648 5650 5652 5653 5653 5653 5654 5653 5653 5654 5654 5654 5653 5653 5652 5651 5651 5652 5652 5653 5652 5651 5650 5649 5648 5648 5648 5648 5648 5649 5649 5649 5648 5648 5647 5647 5646
5626 5627 5627 5631 5633 5637 5639 5641 5641 5642 5643 5643 5642 5642 5642 5643 5644 5643 5643 5643 5643 5642 5641 5640 5640 5640 5641 5641 5640 5639 5638 5638 5637 5637 5637 5637 5637 5637 5637 5638 5637 5636 5634 5633
5621 5621 5622 5625 5627 5629 5631 5631 5631 5631 5632 5633 5632 5631 5631 5631 5632 5632 5633 5633 5632 5631 5630 5630 5629 5629 5630 5629 5629 5629 5629 5628 5628 5628 5627 5627 5626 5624 5625 5625 5625 5624 5623 5622
5615 5616 5617 5617 5619 5621 5622 5622 5622 5622 5623 5623 5623 5622 5622 5622 5622 5622 5622 5623 5622 5620 5620 5620 5619 5620 5619 5619 5619 5619 5619 5619 5618 5617 5617 5616 5616 5615 5614 5614 5613 5613 5612 5611
5607 5608 5610 5610 5612 5613 5613 5614 5614 5614 5615 5615 5615 5615 5614 5613 5613 5613 5613 5613 5612 5611 5611 5610 5610 5610 5610 5610 5610 5610 5609 5609 5609 5608 5607 5607 5606 5606 5606 5605 5604 5603 5601 5601
5606 5607 5607 5607 5607 5607 5607 5607 5607 5607 5606 5607 5607 5607 5606 5605 5604 5603 5603 5603 5602 5601 5601 5601 5601 5601 5601 5601 5601 5601 5600 5600 5600 5599 5598 5597 5598 5597 5596 5595 5594 5593 5591 5590
5602 5602 5602 5602 5602 5601 5600 5600 5600 5600 5600 5600 5599 5598 5597 5596 5595 5594 5594 5594 5593 5592 5592 5593 5593 5593 5593 5593 5593 5592 5592 5591 5590 5589 5589 5588 5588 5587 5586 5585 5584 5583 5582 5581
5597 5597 5597 5597 5597 5596 5595 5594 5594 5593 5592 5591 5591 5590 5588 5587 5587 5586 5586 5585 5584 5584 5585 5585 5585 5585 5585 5585 5585 5584 5584 5583 5582 5581 5580 5579 5578 5578 5577 5576 5575 5573 5572 5571
5591 5591 5591 5590 5589 5589 5589 5588 5588 5586 5585 5585 5584 5583 5581 5580 5579 5579 5578 5577 5577 5577 5577 5577 5577 5577 5577 5577 5577 5576 5575 5574 5573 5572 5571 5571 5570 5569 5568 5567 5566 5564 5563 5562
5586 5585 5585 5584 5582 5582 5582 5582 5582 5581 5580 5579 5578 5577 5575 5573 5572 5571 5570 5569 5570 5570 5570 5570 5569 5569 5569 5569 5569 5568 5567 5566 5565 5564 5563 5562 5561 5561 5559 5558 5557 5556 5555 5553
5580 5580 5579 5578 5577 5576 5576 5576 5575 5575 5574 5573 5572 5571 5569 5567 5566 5565 5564 5563 5564 5564 5564 5563 5563 5562 5562 5562 5561 5560 5559 5559 5558 5557 5555 5554 5553 5552 5551 5550 5549 5548 5546 5545
5575 5575 5574 5573 5573 5572 5570 5570 5570 5569 5569 5568 5567 5566 5564 5562 5561 5560 5559 5559 5558 5558 5558 5556 5556 5555 5555 5554 5553 5553 5552 5551 5550 5549 5548 5546 5545 5545 5544 5543 5542 5541 5539 5537
5571 5570 5569 5569 5568 5567 5566 5565 5564 5563 5563 5562 5562 5561 5560 5558 5557 5556 5555 5554 5553 5553 5552 5551 5550 5550 5549 5548 5548 5547 5546 5545 5544 5542 5541 5540 5539 5538 5537 5536 5535 5534 5532 5531
5566 5565 5565 5564 5563 5562 5561 5560 5559 5558 5557 5557 5557 5556 5555 5554 5553 5552 5551 5550 5550 5549 5547 5547 5546 5545 5544 5543 5543 5542 5541 5540 5539 5537 5536 5534 5533 5532 5531 5530 5528 5527 5526 5524
5562 5561 5560 5559 5558 5557 5557 5556 5555 5554 5554 5554 5552 5552 5551 5550 5549 5548 5547 5546 5545 5545 5544 5543 5542 5541 5540 5539 5538 5537 5536 5535 5534 5533 5531 5530 5528 5527 5526 5524 5523 5521 5519 5518